Regional Weather Roundup
Issued by NWS

Home | Current Version | Previous Version | Graphics & Text | Print | Product List | Glossary Off
Versions: 1 2 3 4 5 6 7 8 9 10 11 12 13 14 15 16 17 18 19 20 21 22 23 24 25 26 27 28 29 30 31 32 33 34 35 36 37 38 39 40 41 42 43 44 45 46 47 48 49 50

000
ASUS43 KDMX 160907
RWRIA

WEATHER ROUNDUP FOR IOWA
NATIONAL WEATHER SERVICE DES MOINES IA
400 AM CDT TUE SEP 16 2014

NOTE: "FAIR" INDICATES FEW OR NO CLOUDS BELOW 12,000 FEET WITH NO
SIGNIFICANT WEATHER AND/OR OBSTRUCTIONS TO VISIBILITY.

* - THESE STATIONS ARE NOT NWS STATIONS...THUS NOT UNDER NWS
QUALITY CONTROL.  THEY ALSO DO NOT REPORT WEATHER SUCH
AS PRECIPITATION OR FOG.

IAZ001>003-012>014-020>022-031>034-043>046-161000-
   NORTHWEST IOWA

CITY           SKY/WX    TMP DP  RH WIND       PRES   REMARKS
CARROLL *      CLEAR     36  36 100 CALM      30.26S FOG
CHEROKEE *     CLEAR     36  36 100 CALM      30.25F
DENISON *      CLEAR     39  39 100 E3        30.24F
LE MARS *      FOG       37  37 100 CALM      30.25F VSB 3/4
ORANGE CITY *  CLEAR     45  39  81 CALM      30.24S
SHELDON *      CLEAR     37  37 100 SE3       30.23F
SIOUX CITY     PTCLDY    41  40  96 E5        30.25F
SPENCER        CLEAR     38  35  89 CALM      30.24F
STORM LAKE *   CLEAR     43  43 100 SW6       30.25F
$$

IAZ055>058-069>071-079>083-090>094-161000-
   SOUTHWEST IOWA

CITY           SKY/WX    TMP DP  RH WIND       PRES   REMARKS
ATLANTIC *     PTCLDY    39  39 100 CALM      30.27S
AUDUBON *      CLEAR     39  37  93 CALM      30.27F FOG
CLARINDA *     FOG       41  41 100 CALM      30.29S VSB 1/4
COUNCIL BLFS * CLEAR     45  45 100 CALM      30.25F
CRESTON *      CLEAR     43  43 100 NW5       30.27S
HARLAN  *      MOCLDY    37  37 100 CALM      30.30F
LAMONI         CLEAR     45  42  89 N3        30.26S
SHENANDOAH *   FOG       41  41 100 CALM      30.28S VSB 1/4
$$

IAZ047>049-059>061-072>074-084-161000-
   CENTRAL IOWA

CITY           SKY/WX    TMP DP  RH WIND       PRES   REMARKS
AMES           CLEAR     39  38  96 CALM      30.26S
ANKENY *       CLEAR     39  39 100 CALM      30.26S
CHARITON *     CLEAR     43  43 100 W6        30.26R
DES MOINES     CLEAR     47  44  90 NW3       30.26S
GRINNELL*      CLEAR     41  39  93 NW5       30.25S
KNOXVILLE *    CLEAR     43  43 100 CALM      30.25R
MARSHALLTOWN   CLEAR     38  38 100 NW5       30.25R FOG     WCI  34
PELLA *        CLEAR     43  43 100 CALM      30.26S
PERRY *          N/A     41  41 100 CALM      30.26S
$$

IAZ004>006-015-016-023>025-035-036-161000-
   NORTH CENTRAL IOWA

CITY           SKY/WX    TMP DP  RH WIND       PRES   REMARKS
ALGONA *       CLEAR     41  39  93 SW7       30.25S
CLARION *        N/A     37  37 100 CALM      30.25S
ESTHERVILLE    CLEAR     38  36  92 SW5       30.24S WCI  34
FORT DODGE *   MOCLDY    39  37  93 CALM      30.25F
MASON CITY     CLEAR     37  37 100 CALM      30.25F FOG
FOREST CITY *    N/A     36  36 100 CALM      30.24S FOG
IOWA FALLS *     N/A     39  37  93 CALM      30.25F
$$

IAZ007>011-017>019-026>030-037>042-050>054-066-161000-
   NORTHEAST IOWA

CITY           SKY/WX    TMP DP  RH WIND       PRES   REMARKS
CEDAR RAPIDS   CLEAR     42  42 100 NW3       30.23S
CHARLES CITY * FOG       39  37  93 CALM      30.24F VSB 1/2
CLINTON *      CLEAR     39  37  93 NW3       30.25S
DECORAH *      CLEAR     41  39  93 CALM      30.22F
DUBUQUE        CLEAR     43  41  93 N6        30.23S
MONTICELLO *   CLEAR     37  37 100 CALM      30.23F FOG
OELWEIN *      CLEAR     39  39 100 CALM      30.24S
WATERLOO       MOCLDY    36  35  96 CALM      30.23F FOG
$$

IAZ064-065-067-068-078-161000-
   EAST CENTRAL IOWA

CITY           SKY/WX    TMP DP  RH WIND       PRES   REMARKS
DAVENPORT      CLEAR     41  39  93 NW5       30.23F
IOWA CITY      CLEAR     43  42  97 CALM      30.25S
MT. PLEASANT * CLEAR     46  45  93 CALM      30.24S FOG
MUSCATINE *    CLEAR     45  43  93 CALM      30.24S
QUAD CITIES    CLEAR     43  41  93 CALM      30.23S
$$

IAZ062-063-075>077-085>089-095>099-161000-
   SOUTHEAST IOWA

CITY           SKY/WX    TMP DP  RH WIND       PRES   REMARKS
BURLINGTON     CLEAR     46  45  96 CALM      30.23S
FAIRFIELD *    CLEAR     43  41  93 NW3       30.24S
FORT MADISON * CLEAR     46  45  93 CALM      30.25R
KEOKUK *       CLEAR     46  46 100 N7        30.23S
OSKALOOSA *      N/A     43  41  93 N5        30.25S
CENTERVILLE *  CLEAR     43  43 100 NW5       30.26S
OTTUMWA        CLEAR     42  40  92 CALM      30.24S
WASHINGTON *   CLEAR     45  45 100 NW3       30.24S
$$

ABBREVIATIONS USED IN REMARKS
   TC - TEMPERATURES IN CELSIUS
  WCI - WIND CHILL INDEX
   HX - HEAT INDEX
  VSB - VISIBILITY
$$



USA.gov is the U.S. government's official web portal to all federal, state and local government web resources and services.